Time,TemperatureF,DewpointF,PressureIn,WindDirection,WindDirectionDegrees,WindSpeedMPH,WindSpeedGustMPH,Humidity,HourlyPrecipIn,Conditions,Clouds,dailyrainin,SolarRadiationWatts/m^2,SoftwareType,DateUTC
2013-03-01 00:11:00,31.0,8.0,-100.00,NNE,18,5.0,11.0,38,0.00,,,0.00,0.000000,,2013-03-01 07:11:00,
2013-03-01 00:21:00,31.0,8.0,-100.00,NNE,18,5.0,11.0,38,0.00,,,0.00,0.000000,,2013-03-01 07:21:00,
2013-03-01 00:32:00,31.0,8.0,-100.00,NNE,18,5.0,11.0,38,0.00,,,0.00,0.000000,,2013-03-01 07:32:00,
2013-03-01 00:42:00,31.0,8.0,-100.00,NNE,18,5.0,11.0,38,0.00,,,0.00,0.000000,,2013-03-01 07:42:00,
2013-03-01 01:01:00,27.0,8.0,-100.00,East,85,3.0,8.0,43,0.00,,,0.00,0.000000,,2013-03-01 08:01:00,
2013-03-01 01:11:00,27.0,8.0,-100.00,East,85,3.0,8.0,43,0.00,,,0.00,0.000000,,2013-03-01 08:11:00,
2013-03-01 01:22:00,27.0,8.0,-100.00,East,85,3.0,8.0,43,0.00,,,0.00,0.000000,,2013-03-01 08:22:00,
2013-03-01 01:32:00,27.0,8.0,-100.00,East,85,3.0,8.0,43,0.00,,,0.00,0.000000,,2013-03-01 08:32:00,
2013-03-01 01:42:00,27.0,8.0,-100.00,East,85,3.0,8.0,43,0.00,,,0.00,0.000000,,2013-03-01 08:42:00,
2013-03-01 02:02:00,29.0,7.0,-100.00,NNE,13,6.0,8.0,39,0.00,,,0.00,0.000000,,2013-03-01 09:02:00,
2013-03-01 02:11:00,29.0,7.0,-100.00,NNE,13,6.0,8.0,39,0.00,,,0.00,0.000000,,2013-03-01 09:11:00,
2013-03-01 02:21:00,29.0,7.0,-100.00,NNE,13,6.0,8.0,39,0.00,,,0.00,0.000000,,2013-03-01 09:21:00,
2013-03-01 02:31:00,29.0,7.0,-100.00,NNE,13,6.0,8.0,39,0.00,,,0.00,0.000000,,2013-03-01 09:31:00,
2013-03-01 02:41:00,29.0,7.0,-100.00,NNE,13,6.0,8.0,39,0.00,,,0.00,0.000000,,2013-03-01 09:41:00,
2013-03-01 03:01:00,29.0,8.0,-100.00,NNE,30,6.0,10.0,40,0.00,,,0.00,0.000000,,2013-03-01 10:01:00,
2013-03-01 03:11:00,29.0,8.0,-100.00,NNE,30,6.0,10.0,40,0.00,,,0.00,0.000000,,2013-03-01 10:11:00,
2013-03-01 03:21:00,29.0,8.0,-100.00,NNE,30,6.0,10.0,40,0.00,,,0.00,0.000000,,2013-03-01 10:21:00,
2013-03-01 03:32:00,29.0,8.0,-100.00,NNE,30,6.0,10.0,40,0.00,,,0.00,0.000000,,2013-03-01 10:32:00,
2013-03-01 03:41:00,29.0,8.0,-100.00,NNE,30,6.0,10.0,40,0.00,,,0.00,0.000000,,2013-03-01 10:41:00,
2013-03-01 04:01:00,29.0,8.0,-100.00,NNE,22,6.0,10.0,40,0.00,,,0.00,0.000000,,2013-03-01 11:01:00,
2013-03-01 04:11:00,29.0,8.0,-100.00,NNE,22,6.0,10.0,40,0.00,,,0.00,0.000000,,2013-03-01 11:11:00,
2013-03-01 04:22:00,29.0,8.0,-100.00,NNE,22,6.0,10.0,40,0.00,,,0.00,0.000000,,2013-03-01 11:22:00,
2013-03-01 04:32:00,29.0,8.0,-100.00,NNE,22,6.0,10.0,40,0.00,,,0.00,0.000000,,2013-03-01 11:32:00,
2013-03-01 04:41:00,29.0,8.0,-100.00,NNE,22,6.0,10.0,40,0.00,,,0.00,0.000000,,2013-03-01 11:41:00,
2013-03-01 05:01:00,30.0,7.0,-100.00,NNE,18,7.0,12.0,37,0.00,,,0.00,0.000000,,2013-03-01 12:01:00,
2013-03-01 05:11:00,30.0,7.0,-100.00,NNE,18,7.0,12.0,37,0.00,,,0.00,0.000000,,2013-03-01 12:11:00,
2013-03-01 05:21:00,30.0,7.0,-100.00,NNE,18,7.0,12.0,37,0.00,,,0.00,0.000000,,2013-03-01 12:21:00,
2013-03-01 05:32:00,30.0,7.0,-100.00,NNE,18,7.0,12.0,37,0.00,,,0.00,0.000000,,2013-03-01 12:32:00,
2013-03-01 05:42:00,30.0,7.0,-100.00,NNE,18,7.0,12.0,37,0.00,,,0.00,0.000000,,2013-03-01 12:42:00,
2013-03-01 06:01:00,30.0,8.0,-100.00,NNE,22,6.0,11.0,39,0.00,,,0.00,0.000000,,2013-03-01 13:01:00,
2013-03-01 06:11:00,30.0,8.0,-100.00,NNE,22,6.0,11.0,39,0.00,,,0.00,0.000000,,2013-03-01 13:11:00,
2013-03-01 06:21:00,30.0,8.0,-100.00,NNE,22,6.0,11.0,39,0.00,,,0.00,0.000000,,2013-03-01 13:21:00,
2013-03-01 06:32:00,30.0,8.0,-100.00,NNE,22,6.0,11.0,39,0.00,,,0.00,0.000000,,2013-03-01 13:32:00,
2013-03-01 06:41:00,30.0,8.0,-100.00,NNE,22,6.0,11.0,39,0.00,,,0.00,0.000000,,2013-03-01 13:41:00,
2013-03-01 07:01:00,29.0,9.0,-100.00,NNE,15,7.0,11.0,43,0.00,,,0.00,0.000000,,2013-03-01 14:01:00,
2013-03-01 07:11:00,29.0,9.0,-100.00,NNE,15,7.0,11.0,43,0.00,,,0.00,0.000000,,2013-03-01 14:11:00,
2013-03-01 07:21:00,29.0,9.0,-100.00,NNE,15,7.0,11.0,43,0.00,,,0.00,0.000000,,2013-03-01 14:21:00,
2013-03-01 07:32:00,29.0,9.0,-100.00,NNE,15,7.0,11.0,43,0.00,,,0.00,0.000000,,2013-03-01 14:32:00,
2013-03-01 07:41:00,29.0,9.0,-100.00,NNE,15,7.0,11.0,43,0.00,,,0.00,0.000000,,2013-03-01 14:41:00,
2013-03-01 08:01:00,36.0,10.0,-100.00,North,8,9.0,14.0,34,0.00,,,0.00,2.000000,,2013-03-01 15:01:00,
2013-03-01 08:42:00,36.0,10.0,-100.00,North,8,9.0,14.0,34,0.00,,,0.00,2.000000,,2013-03-01 15:42:00,
2013-03-01 09:11:00,38.0,11.0,-100.00,NNE,31,8.0,14.0,33,0.00,,,0.00,134.000000,,2013-03-01 16:11:00,
2013-03-01 09:21:00,38.0,11.0,-100.00,NNE,31,8.0,14.0,33,0.00,,,0.00,134.000000,,2013-03-01 16:21:00,
2013-03-01 09:31:00,38.0,11.0,-100.00,NNE,31,8.0,14.0,33,0.00,,,0.00,134.000000,,2013-03-01 16:31:00,
2013-03-01 09:41:00,38.0,11.0,-100.00,NNE,31,8.0,14.0,33,0.00,,,0.00,134.000000,,2013-03-01 16:41:00,
2013-03-01 10:01:00,42.0,15.0,-100.00,West,264,10.0,16.0,33,0.00,,,0.00,378.000000,,2013-03-01 17:01:00,
2013-03-01 10:11:00,42.0,15.0,-100.00,West,264,10.0,16.0,33,0.00,,,0.00,378.000000,,2013-03-01 17:11:00,
2013-03-01 10:21:00,42.0,15.0,-100.00,West,264,10.0,16.0,33,0.00,,,0.00,378.000000,,2013-03-01 17:21:00,
2013-03-01 10:31:00,42.0,15.0,-100.00,West,264,10.0,16.0,33,0.00,,,0.00,378.000000,,2013-03-01 17:31:00,
2013-03-01 10:41:00,42.0,15.0,-100.00,West,264,10.0,16.0,33,0.00,,,0.00,378.000000,,2013-03-01 17:41:00,
2013-03-01 11:01:00,43.0,17.0,-100.00,North,9,13.0,23.0,35,0.00,,,0.00,638.000000,,2013-03-01 18:01:00,
2013-03-01 11:12:00,43.0,17.0,-100.00,North,9,13.0,23.0,35,0.00,,,0.00,638.000000,,2013-03-01 18:12:00,
2013-03-01 11:22:00,43.0,17.0,-100.00,North,9,13.0,23.0,35,0.00,,,0.00,638.000000,,2013-03-01 18:22:00,
2013-03-01 11:31:00,43.0,17.0,-100.00,North,9,13.0,23.0,35,0.00,,,0.00,638.000000,,2013-03-01 18:31:00,
2013-03-01 11:41:00,43.0,17.0,-100.00,North,9,13.0,23.0,35,0.00,,,0.00,638.000000,,2013-03-01 18:41:00,
2013-03-01 12:01:00,44.0,18.0,-100.00,SE,133,15.0,27.0,35,0.00,,,0.00,833.000000,,2013-03-01 19:01:00,
2013-03-01 12:11:00,44.0,18.0,-100.00,SE,133,15.0,27.0,35,0.00,,,0.00,833.000000,,2013-03-01 19:11:00,
2013-03-01 12:21:00,44.0,18.0,-100.00,SE,133,15.0,27.0,35,0.00,,,0.00,833.000000,,2013-03-01 19:21:00,
2013-03-01 12:31:00,44.0,18.0,-100.00,SE,133,15.0,27.0,35,0.00,,,0.00,833.000000,,2013-03-01 19:31:00,
2013-03-01 12:41:00,44.0,18.0,-100.00,SE,133,15.0,27.0,35,0.00,,,0.00,833.000000,,2013-03-01 19:41:00,
2013-03-01 13:01:00,46.0,19.0,-100.00,SSE,164,14.0,27.0,34,0.00,,,0.00,984.000000,,2013-03-01 20:01:00,
2013-03-01 13:11:00,46.0,19.0,-100.00,SSE,164,14.0,27.0,34,0.00,,,0.00,984.000000,,2013-03-01 20:11:00,
2013-03-01 13:21:00,46.0,19.0,-100.00,SSE,164,14.0,27.0,34,0.00,,,0.00,984.000000,,2013-03-01 20:21:00,
2013-03-01 13:31:00,46.0,19.0,-100.00,SSE,164,14.0,27.0,34,0.00,,,0.00,984.000000,,2013-03-01 20:31:00,
2013-03-01 13:41:00,46.0,19.0,-100.00,SSE,164,14.0,27.0,34,0.00,,,0.00,984.000000,,2013-03-01 20:41:00,
2013-03-01 14:01:00,50.0,21.0,-100.00,ESE,121,11.0,23.0,31,0.00,,,0.00,1033.000000,,2013-03-01 21:01:00,
2013-03-01 14:11:00,50.0,21.0,-100.00,ESE,121,11.0,23.0,31,0.00,,,0.00,1033.000000,,2013-03-01 21:11:00,
2013-03-01 14:21:00,50.0,21.0,-100.00,ESE,121,11.0,23.0,31,0.00,,,0.00,1033.000000,,2013-03-01 21:21:00,
2013-03-01 14:31:00,50.0,21.0,-100.00,ESE,121,11.0,23.0,31,0.00,,,0.00,1033.000000,,2013-03-01 21:31:00,
2013-03-01 14:41:00,50.0,21.0,-100.00,ESE,121,11.0,23.0,31,0.00,,,0.00,1033.000000,,2013-03-01 21:41:00,
2013-03-01 15:01:00,50.0,20.0,-100.00,SSW,201,15.0,27.0,30,0.00,,,0.00,998.000000,,2013-03-01 22:01:00,
2013-03-01 15:11:00,50.0,20.0,-100.00,SSW,201,15.0,27.0,30,0.00,,,0.00,998.000000,,2013-03-01 22:11:00,
2013-03-01 15:21:00,50.0,20.0,-100.00,SSW,201,15.0,27.0,30,0.00,,,0.00,998.000000,,2013-03-01 22:21:00,
2013-03-01 15:31:00,50.0,20.0,-100.00,SSW,201,15.0,27.0,30,0.00,,,0.00,998.000000,,2013-03-01 22:31:00,
2013-03-01 15:41:00,50.0,20.0,-100.00,SSW,201,15.0,27.0,30,0.00,,,0.00,998.000000,,2013-03-01 22:41:00,
2013-03-01 16:01:00,48.0,18.0,-100.00,NNE,20,14.0,26.0,30,0.00,,,0.00,879.000000,,2013-03-01 23:01:00,
2013-03-01 16:11:00,48.0,18.0,-100.00,NNE,20,14.0,26.0,30,0.00,,,0.00,879.000000,,2013-03-01 23:11:00,
2013-03-01 16:21:00,48.0,18.0,-100.00,NNE,20,14.0,26.0,30,0.00,,,0.00,879.000000,,2013-03-01 23:21:00,
2013-03-01 16:31:00,48.0,18.0,-100.00,NNE,20,14.0,26.0,30,0.00,,,0.00,879.000000,,2013-03-01 23:31:00,
2013-03-01 16:41:00,48.0,18.0,-100.00,NNE,20,14.0,26.0,30,0.00,,,0.00,879.000000,,2013-03-01 23:41:00,
2013-03-01 17:01:00,47.0,17.0,-100.00,South,187,14.0,22.0,30,0.00,,,0.00,687.000000,,2013-03-02 00:01:00,
2013-03-01 17:11:00,47.0,17.0,-100.00,South,187,14.0,22.0,30,0.00,,,0.00,687.000000,,2013-03-02 00:11:00,
2013-03-01 17:21:00,47.0,17.0,-100.00,South,187,14.0,22.0,30,0.00,,,0.00,687.000000,,2013-03-02 00:21:00,
2013-03-01 17:31:00,47.0,17.0,-100.00,South,187,14.0,22.0,30,0.00,,,0.00,687.000000,,2013-03-02 00:31:00,
2013-03-01 17:41:00,47.0,17.0,-100.00,South,187,14.0,22.0,30,0.00,,,0.00,687.000000,,2013-03-02 00:41:00,
2013-03-01 18:01:00,47.0,19.0,-100.00,SE,145,8.0,22.0,32,0.00,,,0.00,443.000000,,2013-03-02 01:01:00,
2013-03-01 18:11:00,47.0,19.0,-100.00,SE,145,8.0,22.0,32,0.00,,,0.00,443.000000,,2013-03-02 01:11:00,
2013-03-01 18:21:00,47.0,19.0,-100.00,SE,145,8.0,22.0,32,0.00,,,0.00,443.000000,,2013-03-02 01:21:00,
2013-03-01 18:31:00,47.0,19.0,-100.00,SE,145,8.0,22.0,32,0.00,,,0.00,443.000000,,2013-03-02 01:31:00,
2013-03-01 18:41:00,47.0,19.0,-100.00,SE,145,8.0,22.0,32,0.00,,,0.00,443.000000,,2013-03-02 01:41:00,
2013-03-01 19:01:00,38.0,18.0,-100.00,SSE,165,4.0,13.0,43,0.00,,,0.00,146.000000,,2013-03-02 02:01:00,
2013-03-01 19:11:00,38.0,18.0,-100.00,SSE,165,4.0,13.0,43,0.00,,,0.00,146.000000,,2013-03-02 02:11:00,
2013-03-01 19:21:00,38.0,18.0,-100.00,SSE,165,4.0,13.0,43,0.00,,,0.00,146.000000,,2013-03-02 02:21:00,
2013-03-01 19:31:00,38.0,18.0,-100.00,SSE,165,4.0,13.0,43,0.00,,,0.00,146.000000,,2013-03-02 02:31:00,
2013-03-01 19:41:00,38.0,18.0,-100.00,SSE,165,4.0,13.0,43,0.00,,,0.00,146.000000,,2013-03-02 02:41:00,
2013-03-01 21:01:00,37.0,20.0,-100.00,WNW,303,7.0,10.0,50,-99.99,,,0.00,0.000000,,2013-03-02 04:01:00,
2013-03-01 21:11:00,37.0,20.0,-100.00,WNW,303,7.0,10.0,50,-99.99,,,0.00,0.000000,,2013-03-02 04:11:00,
2013-03-01 21:21:00,37.0,20.0,-100.00,WNW,303,7.0,10.0,50,-99.99,,,0.00,0.000000,,2013-03-02 04:21:00,
2013-03-01 21:31:00,37.0,20.0,-100.00,WNW,303,7.0,10.0,50,-99.99,,,0.00,0.000000,,2013-03-02 04:31:00,
2013-03-01 21:41:00,37.0,20.0,-100.00,WNW,303,7.0,10.0,50,-99.99,,,0.00,0.000000,,2013-03-02 04:41:00,
2013-03-01 22:01:00,34.0,19.0,-100.00,WSW,241,7.0,10.0,53,0.00,,,0.00,0.000000,,2013-03-02 05:01:00,
2013-03-01 22:12:00,34.0,19.0,-100.00,WSW,241,7.0,10.0,53,0.00,,,0.00,0.000000,,2013-03-02 05:12:00,
2013-03-01 22:22:00,34.0,19.0,-100.00,WSW,241,7.0,10.0,53,0.00,,,0.00,0.000000,,2013-03-02 05:22:00,
2013-03-01 22:31:00,34.0,19.0,-100.00,WSW,241,7.0,10.0,53,0.00,,,0.00,0.000000,,2013-03-02 05:31:00,
2013-03-01 22:41:00,34.0,19.0,-100.00,WSW,241,7.0,10.0,53,0.00,,,0.00,0.000000,,2013-03-02 05:41:00,
2013-03-01 23:01:00,35.0,19.0,-100.00,East,99,8.0,12.0,52,0.00,,,0.00,0.000000,,2013-03-02 06:01:00,
2013-03-01 23:11:00,35.0,19.0,-100.00,East,99,8.0,12.0,52,0.00,,,0.00,0.000000,,2013-03-02 06:11:00,
2013-03-01 23:21:00,35.0,19.0,-100.00,East,99,8.0,12.0,52,0.00,,,0.00,0.000000,,2013-03-02 06:21:00,
2013-03-01 23:31:00,35.0,19.0,-100.00,East,99,8.0,12.0,52,0.00,,,0.00,0.000000,,2013-03-02 06:31:00,
2013-03-01 23:41:00,35.0,19.0,-100.00,East,99,8.0,12.0,52,0.00,,,0.00,0.000000,,2013-03-02 06:41:00,